Current Weather Conditions: station 62124

sailwx.info

Wind from 270

Air temperature 13.5° C
Dewpoint 8.8° C

Last reported at 2019-Jun-20 16:00 UTC.
Time now 2019-Jun-20 17:54 UTC

Location: N 53°36' W 003°36'.
View on Google Maps.

See reports from other nearby stations

  
Tides and Currents Weather Stations Pressure Air Temp Water Temp Dewpoint Dewpoint Depression Visibility Wind Speed Wind Dir Waves Ship Positions
date/time (UTC)wind fromknots sea level pressurealtimeterstation pressurevisibilityair tempwater tempwave heightnotes
2019-Jun-20 16:00 270 13.5
2019-Jun-20 15:00 280 12.9
2019-Jun-20 14:00 280 12.3
2019-Jun-20 13:00 290 11.8
2019-Jun-20 12:00 290 11.5
2019-Jun-20 11:00 290 11.4
2019-Jun-20 10:00 280 11.3
2019-Jun-20 09:00 290 11.3
2019-Jun-20 08:00 290 11.4
2019-Jun-20 07:00 300 11.4
2019-Jun-20 06:00 300 11.7
2019-Jun-20 05:00 300 11.6
2019-Jun-20 04:00 290 12.0
2019-Jun-20 03:00 280 12.4
2019-Jun-20 02:00 270 12.4
2019-Jun-20 01:00 280 12.8
2019-Jun-20 00:00 260 13.0
2019-Jun-19 23:00 250 13.1
2019-Jun-19 22:00 240 13.5
2019-Jun-19 21:00 240 13.9
2019-Jun-19 20:00 250 14.2
2019-Jun-19 19:00 280 14.8
2019-Jun-19 18:00 260 14.8
2019-Jun-19 17:00 290 13.9
2019-Jun-19 16:00 300 13.1
2019-Jun-19 15:00 310 12.7
2019-Jun-19 14:00 310 12.5
2019-Jun-19 13:00 110 12.1
2019-Jun-19 12:00 110 11.7
2019-Jun-19 11:00 120 12.3
2019-Jun-19 10:00 300 12.5
2019-Jun-19 09:00 270 13.4
2019-Jun-19 08:00 250 14.2
2019-Jun-19 07:00 240 14.3
2019-Jun-19 06:00 220 12.3
2019-Jun-19 05:00 260 11.9
2019-Jun-19 04:00 240 11.8
2019-Jun-19 03:00 190 12.8
2019-Jun-19 02:00 140 12.8
2019-Jun-19 01:00 190 12.8
2019-Jun-19 00:00 190 13.0
2019-Jun-18 23:00 210 13.4
2019-Jun-18 22:00 180 13.6
2019-Jun-18 21:00 170 14.3
2019-Jun-18 20:00 150 14.4
2019-Jun-18 19:00 110 14.2
2019-Jun-18 18:00 100 14.3
2019-Jun-18 17:00 080 14.8